{"data":{"norad_id":47385,"epoch":"2026-05-24T23:24:34.718976Z","epoch_age_seconds":67256,"freshness":"FRESH","line1":"1 47385U 21005AN  26144.97540184  .00002406  00000+0  89253-4 0  9992","line2":"2 47385  53.1610  42.2834 0001608 100.1445 259.9738 15.31706460295066","mean_motion":15.3170646,"eccentricity":0.0001608,"inclination_deg":53.161,"raan_deg":42.2834,"arg_perigee_deg":100.1445,"mean_anomaly_deg":259.9738,"bstar":8.9253e-5,"rev_number":29506,"period_min":94.01279145875,"perigee_km":469.61944204515,"apogee_km":471.82203469381,"semimajor_km":6848.8577383695,"source":"CELESTRAK","updated_at":"2026-05-25T13:38:16.552153Z"}}